Overview Statistics Trail Chart Weather Telemetry Raw packets
 

This is the latest recevied weather packets stored in our database for station/object K7FLA. If no packets are shown the sender has not sent any weather packets the latest 10 day(s).

<< 108 109 110 111 112 113 114 >>
Time Temp. Humidity Pressure Rain* Wind** Luminosity Snow
1787844072 27.78° C 41% 1096.1 hPa 0 mm - 183 W/m² -
1787843767 27.22° C 45% 1096.2 hPa 0 mm - 123 W/m² -
1787843462 27.22° C 45% 1095.9 hPa 0 mm - 90 W/m² -
1787843159 27.22° C 45% 1096 hPa 0 mm - 82 W/m² -
1787842853 27.22° C 46% 1096.1 hPa 0 mm - 92 W/m² -
1787842548 26.67° C 45% 1095.7 hPa 0 mm - 80 W/m² -
1787842247 26.67° C 45% 1095.9 hPa 0 mm - 75 W/m² -
1787841942 26.67° C 45% 1096 hPa 0 mm - 72 W/m² -
1787841638 26.67° C 42% 1095.6 hPa 0 mm - 72 W/m² -
1787841338 26.67° C 42% 1095.6 hPa 0 mm - 71 W/m² -
1787841033 26.67° C 42% 1095.4 hPa 0 mm - 73 W/m² -
1787840728 26.67° C 41% 1095.6 hPa 0 mm - 69 W/m² -
1787840423 26.67° C 40% 1095.3 hPa 0 mm - 55 W/m² -
1787840119 26.11° C 40% 1095.3 hPa 0 mm - 59 W/m² -
1787839819 25.56° C 40% 1095.5 hPa 0 mm - 53 W/m² -
1787839519 25.56° C 40% 1095.3 hPa 0 mm - 41 W/m² -
1787839219 25.56° C 39% 1095.2 hPa 0 mm - 39 W/m² -
1787838918 25.56° C 40% 1095.2 hPa 0 mm - 28 W/m² -
1787838617 25.56° C 40% 1095.2 hPa 0 mm - 20 W/m² -
1787838317 25.56° C 41% 1095.4 hPa 0 mm - 19 W/m² -
1787838015 25° C 41% 1095.2 hPa 0 mm - 16 W/m² -
1787837710 25° C 42% 1095.1 hPa 0 mm - 13 W/m² -
1787837405 25° C 42% 1095.1 hPa 0 mm - 10 W/m² -
1787837100 24.44° C 42% 1095.2 hPa 0 mm - 7 W/m² -
1787836799 24.44° C 43% 1095 hPa 0 mm - 3 W/m² -

* Rain latest hour (hover to see other rain measurements)
** Current wind speed in m/s (hover to see current wind gust speed)